Find Starlink 31041

NORAD ID: 58537 Int'l Des: 2023-192 Owner: SPXS Country: US Constellation: starlink operational
LEOCIRCULAR

Live Position

Loading 3D Globe...

About Starlink 31041

Description loading...

Upcoming Passes

Passes for default location (London). Set your location on the main map for personalized predictions.

Altitude History

Loading altitude history...

Two-Line Element Set

1 58537U 23192G 26126.47791912 .00000097 00000-0 15400-4 0 9992
2 58537 53.1592 154.2737 0001323 86.2821 273.8331 15.30183436134830
Epoch: May 6, 2026 • Age: 4 hours

Current Status

Altitude 489.3 km
Velocity 7.62 km/s
Sub-Earth Point -40.46°S, 10.37°E
Launch Date Dec 8, 2023
Age 2.4 years
Type internet

Technical Details

Classification Payload
Mass 730.00 kg
Dry Mass 700.00 kg
Total Mass 730.00 kg
Length 0.30 m
Diameter 4.10 m
Span 29.00 m
Shape Box + pan
Manufacturer SPXS
Bus Type Starlink V2M
Phase Status In Orbit
Owner/State SPXS/US

Most Searched